Temperature
18 17 17 16 16 15 15 15 15 14 14 14 13 13 13 13 12 12 12 12 12 12 11 11 11 11 11 11 11 10 10 10 10 11 11 11 11 11 12 12 12 12 13
18 17 17 16 16 16 15 15 15 14 14 14 13 13 13 13 12 12 12 12 12 12 11 11 11 11 11 11 11 10 10 10 10 10 11 11 11 11 11 11 12 12 12
18 18 17 17 16 16 16 15 15 15 14 14 14 13 13 13 13 12 12 12 12 12 11 11 11 11 11 11 10 10 10 10 10 10 10 10 11 11 11 11 11 11 12
18 18 18 17 17 16 16 15 15 15 15 14 14 14 13 13 13 13 12 12 12 12 11 11 11 11 11 11 10 10 10 10 10 10 10 10 10 10 10 10 11 11 11
18 18 18 17 17 16 16 16 15 15 15 14 14 14 14 13 13 13 12 12 12 12 12 11 11 11 11 11 10 10 10 10 10 9 9 10 10 10 10 10 10 10 11
18 18 18 17 17 17 16 16 16 15 15 14 14 14 14 14 13 13 13 12 12 12 12 12 11 11 11 11 10 10 10 10 9 9 9 9 10 10 10 9 9 9 10
19 18 18 17 17 17 16 16 16 15 15 15 14 14 14 14 13 13 13 12 12 12 12 12 11 11 11 11 10 10 10 10 9 9 9 9 9 9 9 9 9 9 9
19 18 18 18 17 17 17 16 16 15 15 15 14 14 14 14 13 13 12 12 12 12 12 11 11 11 11 10 10 10 10 10 9 9 9 9 9 9 9 9 9 9 9
19 19 18 18 17 17 17 16 16 15 15 15 14 14 14 14 13 13 12 12 12 12 12 12 11 11 11 10 10 10 10 10 10 9 9 9 9 9 9 8 8 8 8
19 18 18 17 17 17 16 16 15 15 15 14 14 14 13 13 13 13 12 12 12 12 12 12 11 11 11 11 10 10 10 10 10 9 9 9 9 9 9 8 8 8 8
18 18 17 17 17 16 16 15 15 15 14 14 14 13 13 13 13 13 12 12 12 12 12 12 12 11 11 10 10 10 10 10 9 9 9 9 9 9 9 9 8 8 8
17 17 17 16 16 15 15 15 14 14 14 13 13 13 13 13 13 12 12 12 12 12 12 12 11 11 11 10 10 10 10 9 9 9 9 9 9 9 9 9 8 8 8
16 16 16 16 15 15 14 14 14 14 13 13 13 13 13 13 12 12 12 12 12 12 12 12 11 11 11 11 10 10 10 9 9 9 9 9 9 9 8 8 8 8 8
15 15 15 15 14 14 14 13 13 13 13 13 12 12 12 12 12 12 12 12 12 12 12 12 11 11 11 11 10 10 10 9 9 9 9 9 9 8 8 8 8 8 8
14 14 14 14 13 13 13 13 13 12 12 12 12 12 12 12 12 12 12 12 12 11 11 11 11 11 11 11 10 10 10 9 9 9 9 8 8 8 8 8 8 8 7
14 13 13 13 12 12 12 12 12 12 12 11 11 11 11 11 11 11 11 11 11 11 11 11 11 11 11 10 10 10 9 9 9 8 8 8 8 8 8 8 8 7 7
13 12 12 12 12 11 11 11 11 11 11 11 11 11 11 11 11 11 11 11 11 11 10 11 11 11 10 10 10 10 9 9 9 8 8 8 8 8 8 7 7 7 7
12 11 11 11 11 11 10 10 10 10 10 11 11 11 11 10 10 10 10 10 10 10 10 10 10 10 10 10 10 9 9 9 8 8 8 8 8 8 7 7 7 7 7
11 11 10 10 10 10 10 10 9 9 9 9 10 10 10 10 10 10 10 10 10 10 10 10 10 10 10 9 9 9 9 9 8 8 8 8 8 7 7 7 7 7 7
10 10 10 10 10 9 9 9 9 9 9 9 9 9 9 9 9 9 9 9 9 9 9 9 9 9 9 9 9 9 8 8 8 8 8 8 8 7 7 7 7 7 7
10 10 9 9 9 9 9 9 8 8 8 8 8 8 8 8 8 8 9 9 9 9 9 9 9 9 9 9 8 8 8 8 8 8 8 8 8 7 7 7 7 7 7
10 9 9 9 9 9 8 8 8 8 8 8 8 8 8 8 8 8 8 8 8 8 8 8 8 9 8 8 8 8 8 8 8 8 8 8 7 7 7 7 7 7 7
9 9 9 9 8 8 8 8 7 7 7 7 7 7 7 7 7 7 8 8 8 8 8 8 8 8 8 8 8 8 8 8 8 8 8 8 7 7 7 7 7 7 7
9 9 9 8 8 8 7 7 7 7 6 6 6 7 7 7 7 7 7 7 8 8 8 8 8 8 8 8 8 8 8 8 8 8 8 7 7 7 7 7 7 7 7
9 8 8 8 7 7 7 6 6 6 6 6 6 6 6 6 6 6 7 7 7 7 7 8 8 8 8 8 8 8 8 7 7 7 7 7 8 7 7 7 7 7 7
8 8 7 7 7 6 6 6 5 5 5 5 5 6 6 6 6 6 6 7 7 7 7 7 7 8 8 8 7 7 7 7 7 7 7 7 7 7 7 7 7 7 7
Wind_Speed
9 8 7 7 6 5 5 5 5 4 4 5 5 4 4 4 3 3 4 4 4 4 4 4 5 4 4 4 4 4 5 5 6 6 4 4 4 7 8 8 9 9 9
9 8 8 7 6 6 6 6 6 6 5 5 5 5 5 5 5 5 6 5 6 6 6 5 6 5 6 5 4 5 5 6 6 8 5 4 5 6 6 7 7 7 8
9 9 8 7 7 8 8 7 6 6 6 5 5 6 6 6 6 6 6 7 7 7 7 7 7 6 7 6 6 6 6 6 6 6 6 4 4 4 5 5 6 6 8
9 9 9 9 10 9 8 7 7 7 6 6 6 7 7 6 6 7 7 7 8 8 8 8 8 8 9 8 7 7 7 6 6 7 7 6 6 5 4 5 6 4 5
9 9 10 9 8 7 7 7 7 7 7 7 6 7 6 6 7 8 8 8 8 8 8 8 9 10 12 10 8 8 7 7 6 7 7 6 6 5 6 4 5 6 5
9 10 9 7 7 8 8 7 7 7 6 6 7 8 8 7 10 11 9 8 8 9 9 9 9 11 12 13 14 13 10 9 9 7 7 8 10 8 7 6 5 5 5
10 9 8 8 8 8 7 7 7 7 6 7 7 8 9 10 13 13 13 9 9 10 10 10 9 9 10 9 11 12 13 14 15 11 11 12 10 9 7 7 7 7 7
10 9 8 8 9 7 7 8 8 6 6 7 8 8 9 11 13 14 14 10 10 11 11 11 11 11 10 10 10 10 10 11 11 11 12 13 12 10 9 9 8 7 7
10 9 9 9 9 8 8 8 7 5 7 7 6 8 9 11 13 14 12 7 9 12 11 11 11 12 14 13 10 11 12 11 11 14 15 14 15 15 10 6 6 6 7
9 9 8 8 8 8 9 7 5 6 7 7 8 8 9 11 13 14 12 7 9 10 10 10 13 15 15 13 11 11 12 12 10 8 9 10 11 12 12 11 10 9 7
6 6 6 7 7 7 6 5 5 6 6 7 8 9 9 11 13 15 13 8 9 10 9 9 9 14 16 16 13 12 14 12 9 9 8 8 8 8 9 9 10 10 10
4 4 4 5 5 5 5 5 5 5 6 7 7 9 8 9 11 13 15 14 13 10 11 10 10 13 14 14 12 13 15 12 8 8 8 9 9 9 9 9 10 12 12
3 3 2 3 4 4 4 5 4 4 5 6 6 8 9 8 9 14 16 15 15 12 11 13 14 13 12 11 14 15 12 9 8 9 10 11 10 9 8 6 8 9 11
3 1 1 2 2 2 3 4 4 5 6 7 7 8 9 8 9 8 8 8 10 11 11 11 12 12 11 12 11 10 9 9 9 10 10 10 8 7 8 7 7 6 6
2 1 1 0 1 2 3 4 6 7 7 8 8 8 9 10 12 12 9 8 7 7 6 5 6 6 7 8 8 8 8 8 9 10 10 10 9 9 9 7 7 7 7
3 2 1 1 1 2 4 5 8 10 13 14 15 13 11 15 17 17 15 15 15 10 6 7 9 9 10 10 9 9 8 9 9 9 10 10 9 9 9 7 7 8 9
2 0 1 1 2 3 3 4 7 8 10 12 14 15 15 17 18 18 17 14 12 9 8 10 11 11 10 10 10 10 9 9 8 9 9 9 9 9 8 8 8 8 9
2 1 1 2 3 3 4 5 5 7 9 8 10 13 15 15 16 17 14 8 7 6 9 11 11 11 10 10 10 10 10 9 8 8 9 9 9 9 9 9 9 10 9
1 1 2 3 3 4 5 5 6 7 8 9 9 11 13 13 13 13 9 6 8 9 9 10 11 11 10 10 10 10 10 9 9 8 8 9 9 9 9 10 9 11 11
2 4 4 3 4 4 5 5 6 7 8 9 9 10 9 8 8 9 7 7 9 10 10 10 10 11 10 10 9 9 9 9 9 9 9 9 9 9 10 11 10 10 10
2 4 6 5 4 5 5 6 7 8 8 9 10 11 12 10 10 11 10 9 9 11 11 10 10 10 10 9 9 10 11 9 9 8 8 8 9 9 9 9 9 10 9
3 4 4 5 5 5 6 7 7 8 10 11 11 11 13 9 9 10 10 10 10 9 10 10 10 9 9 9 9 9 9 10 9 8 8 8 8 8 9 9 9 8 9
4 5 5 6 6 7 7 7 8 9 10 11 11 11 11 9 9 10 10 11 10 9 9 8 9 9 8 8 8 8 9 9 8 8 8 8 8 8 8 9 9 9 9
4 5 6 6 6 7 7 8 9 10 11 11 11 11 11 10 10 11 10 10 9 9 8 7 8 10 11 9 7 7 8 8 7 7 9 8 8 7 7 8 9 10 10
4 5 6 6 7 7 8 9 10 10 11 11 11 11 11 11 10 10 9 9 9 9 9 8 7 8 10 10 8 7 6 7 7 6 6 6 8 8 8 9 8 8 9
5 6 6 6 7 7 8 9 10 11 11 11 10 10 10 10 10 9 9 8 8 8 8 7 8 8 8 7 7 5 4 4 4 5 4 5 6 7 7 7 9 8 8
Wind_Direction
180 180 175 183 185 180 189 203 203 206 206 210 216 223 233 240 235 227 239 241 241 251 249 241 249 248 247 243 230 226 223 219 250 270 257 269 276 281 293 294 290 285 284
181 178 183 184 182 189 206 213 209 214 217 219 221 228 237 240 234 232 245 245 242 251 253 249 255 254 249 246 238 237 234 225 236 267 273 269 262 272 280 287 290 287 282
175 179 183 187 192 204 213 213 211 215 220 223 222 230 238 241 240 241 243 249 247 248 250 248 253 250 254 250 243 243 244 242 232 250 269 265 267 270 278 283 284 283 285
178 182 191 198 202 208 210 212 214 214 219 226 230 235 240 244 246 248 246 248 251 252 250 247 248 244 248 250 248 244 244 246 242 247 262 268 268 270 264 272 283 281 286
180 193 205 206 203 203 208 214 217 219 225 229 236 243 245 245 246 243 243 247 249 257 257 251 249 246 244 243 246 245 241 244 247 249 259 266 267 264 259 255 270 284 283
183 204 207 200 200 206 212 215 218 224 228 228 235 242 247 248 249 247 241 247 249 252 259 261 258 257 256 251 248 246 235 239 245 246 253 257 263 260 257 253 257 270 280
191 201 199 197 202 210 211 211 221 226 226 232 239 241 249 253 254 255 250 245 249 251 253 258 262 259 252 256 258 259 252 243 236 240 250 253 258 254 248 252 243 243 252
194 202 200 197 208 208 203 215 223 222 226 236 243 244 249 257 254 254 255 249 249 251 250 249 253 261 258 250 256 262 261 256 246 241 245 251 253 253 243 248 255 256 258
200 205 203 200 206 205 211 221 222 219 231 237 244 243 247 259 258 256 253 249 252 256 254 249 245 253 255 246 248 257 264 266 257 244 242 248 251 248 238 236 239 241 259
206 205 198 196 203 211 218 221 217 218 234 241 248 248 247 257 262 260 252 243 252 259 260 253 242 243 250 246 243 247 257 263 264 265 258 258 257 255 239 229 233 239 250
193 186 188 197 206 213 216 217 219 226 239 246 253 258 253 253 261 262 253 234 242 253 258 259 253 240 242 246 239 240 246 253 263 263 266 267 263 256 248 235 229 230 238
162 174 191 200 212 217 214 224 223 225 242 256 260 268 265 259 255 261 256 241 236 245 254 257 255 247 244 246 244 242 245 249 255 256 259 260 258 254 250 243 235 232 236
143 176 194 198 212 210 211 226 229 227 239 257 260 267 273 271 264 257 259 256 244 238 250 251 253 256 256 256 249 245 245 244 242 246 251 254 253 253 254 251 246 238 241
140 160 169 194 228 235 231 230 235 242 248 256 260 265 271 273 273 269 263 263 256 246 252 256 257 257 253 253 258 254 243 237 235 243 250 255 256 251 248 245 248 242 243
108 98 82 223 251 262 260 249 248 248 244 248 259 260 265 272 268 257 259 266 260 253 252 254 254 253 254 253 253 253 248 241 239 241 245 250 252 251 250 240 237 234 236
92 67 28 320 293 283 286 293 265 258 266 259 254 255 260 257 267 273 270 265 263 254 234 248 252 251 252 253 254 255 248 243 241 240 241 243 246 247 248 240 231 232 238
105 88 311 303 293 290 290 293 299 299 285 278 272 268 260 265 269 272 273 272 263 231 229 246 250 251 251 251 250 250 252 250 242 238 240 241 242 242 241 240 235 234 238
66 18 340 299 294 294 291 289 287 293 302 302 293 284 279 275 274 273 271 269 261 227 235 246 250 250 249 251 251 250 252 252 244 240 239 239 237 236 238 238 236 234 237
7 314 300 292 291 289 290 292 293 292 290 292 298 299 294 290 282 273 256 242 255 255 248 248 251 251 250 249 248 249 249 248 244 239 239 238 235 232 235 236 236 234 235
315 310 307 291 292 295 296 297 298 298 297 296 295 295 302 305 300 293 273 257 257 260 257 254 252 251 248 248 247 246 247 247 245 242 241 241 236 232 235 236 234 234 233
290 300 305 300 290 288 291 294 295 296 297 297 293 290 287 290 288 287 284 274 265 264 262 260 256 252 247 245 243 242 244 246 244 243 242 241 237 234 234 235 235 235 237
272 280 285 286 287 289 292 292 294 295 297 297 298 299 292 286 286 286 285 283 277 269 263 260 259 254 248 245 243 242 243 244 244 242 241 241 238 236 235 233 233 234 235
270 281 288 290 290 292 296 297 298 300 300 299 300 301 299 295 291 288 288 288 286 280 269 258 258 259 254 247 243 240 244 247 245 242 241 241 238 234 231 231 233 237 234
273 281 289 294 295 297 299 301 302 302 302 302 302 301 299 295 293 292 292 292 289 287 281 272 264 262 259 255 248 244 245 248 248 244 242 242 241 239 234 234 236 236 236
281 286 291 294 297 299 301 302 302 302 303 303 301 301 300 299 298 298 298 295 293 292 293 290 280 270 265 261 257 250 243 244 242 241 240 239 241 239 237 236 236 237 233
289 291 293 294 294 295 297 299 300 301 302 302 302 302 303 303 302 302 304 304 303 302 303 302 296 287 279 269 259 248 240 247 243 240 241 237 238 240 238 236 237 235 234
Height
1529 1532 1533 1535 1536 1537 1537 1538 1538 1538 1539 1539 1539 1539 1539 1539 1538 1538 1538 1537 1537 1536 1536 1535 1534 1534 1533 1533 1532 1531 1530 1530 1527 1526 1526 1526 1525 1525 1525 1525 1524 1524 1524
1527 1529 1531 1533 1534 1534 1535 1536 1536 1536 1537 1537 1537 1537 1536 1536 1536 1535 1535 1534 1534 1533 1533 1532 1531 1530 1529 1529 1528 1527 1526 1525 1524 1521 1521 1521 1520 1520 1519 1519 1519 1518 1518
1524 1526 1528 1530 1530 1532 1533 1533 1534 1534 1534 1534 1534 1534 1534 1533 1533 1532 1532 1531 1530 1530 1529 1528 1527 1526 1525 1524 1523 1523 1522 1521 1519 1518 1516 1515 1515 1515 1514 1513 1513 1512 1512
1521 1523 1524 1526 1528 1529 1530 1531 1531 1531 1531 1531 1531 1531 1530 1530 1529 1529 1528 1527 1527 1526 1525 1524 1523 1522 1521 1520 1519 1518 1517 1516 1514 1513 1511 1510 1510 1509 1509 1508 1507 1507 1506
1517 1519 1521 1523 1525 1526 1527 1527 1528 1528 1528 1528 1528 1527 1527 1526 1525 1525 1524 1523 1522 1521 1520 1519 1518 1517 1516 1515 1513 1512 1511 1510 1509 1507 1506 1505 1504 1504 1503 1502 1501 1501 1500
1513 1515 1517 1519 1521 1522 1523 1523 1524 1524 1524 1524 1523 1523 1522 1522 1521 1520 1519 1518 1517 1516 1515 1514 1513 1512 1510 1509 1508 1507 1506 1504 1503 1502 1500 1499 1498 1498 1498 1497 1496 1495 1494
1508 1511 1513 1514 1516 1517 1519 1519 1520 1520 1520 1519 1519 1518 1518 1517 1516 1515 1514 1513 1512 1511 1510 1508 1507 1506 1505 1504 1502 1501 1500 1499 1498 1496 1494 1493 1493 1493 1492 1491 1490 1489 1488
1504 1506 1508 1510 1511 1513 1515 1515 1515 1516 1515 1515 1515 1514 1513 1512 1512 1510 1509 1508 1506 1505 1504 1503 1501 1500 1499 1498 1496 1494 1493 1492 1491 1490 1488 1487 1487 1487 1486 1485 1484 1483 1482
1499 1502 1504 1505 1507 1509 1510 1511 1511 1511 1511 1510 1510 1509 1508 1507 1506 1505 1504 1502 1500 1499 1498 1496 1495 1494 1493 1492 1489 1487 1486 1485 1485 1483 1482 1481 1480 1480 1479 1478 1478 1477 1475
1495 1498 1500 1502 1504 1504 1505 1506 1506 1506 1506 1505 1504 1503 1502 1501 1501 1500 1498 1496 1494 1492 1491 1490 1489 1487 1486 1485 1483 1481 1479 1478 1478 1476 1475 1474 1473 1472 1472 1472 1471 1470 1469
1492 1494 1496 1498 1499 1500 1501 1501 1501 1501 1500 1499 1498 1497 1496 1495 1494 1493 1492 1489 1487 1485 1484 1482 1482 1481 1479 1478 1476 1474 1472 1471 1470 1468 1467 1466 1466 1465 1465 1464 1464 1463 1463
1488 1490 1491 1493 1494 1495 1496 1496 1496 1495 1494 1493 1492 1491 1490 1489 1487 1486 1485 1483 1481 1479 1476 1475 1474 1473 1472 1470 1468 1467 1465 1464 1462 1460 1459 1458 1458 1457 1457 1457 1456 1456 1455
1485 1486 1487 1488 1489 1490 1490 1490 1490 1489 1487 1486 1485 1483 1482 1481 1480 1479 1477 1476 1474 1471 1469 1468 1467 1466 1464 1462 1461 1459 1458 1456 1454 1452 1451 1450 1450 1450 1449 1449 1448 1448 1447
1482 1483 1484 1484 1485 1485 1485 1485 1484 1483 1481 1480 1478 1476 1475 1473 1472 1471 1469 1468 1466 1464 1462 1461 1459 1458 1456 1454 1453 1451 1450 1448 1446 1444 1443 1443 1442 1442 1441 1441 1440 1440 1439
1479 1480 1480 1480 1480 1480 1480 1479 1478 1477 1476 1474 1472 1470 1468 1465 1464 1463 1461 1459 1458 1456 1454 1452 1450 1449 1447 1446 1444 1443 1441 1440 1438 1437 1435 1435 1434 1433 1433 1433 1432 1432 1432
1476 1477 1477 1476 1476 1475 1474 1473 1472 1471 1469 1467 1465 1463 1460 1458 1456 1454 1453 1451 1449 1447 1445 1442 1441 1440 1438 1437 1435 1434 1432 1431 1430 1428 1427 1426 1425 1425 1425 1425 1425 1425 1424
1474 1474 1474 1473 1472 1471 1469 1467 1465 1464 1463 1460 1458 1455 1452 1450 1448 1446 1444 1442 1440 1438 1435 1433 1432 1430 1429 1428 1426 1425 1423 1423 1422 1420 1419 1418 1418 1417 1417 1417 1417 1417 1417
1472 1471 1471 1470 1468 1467 1465 1462 1460 1457 1454 1451 1450 1448 1445 1442 1439 1437 1435 1432 1430 1428 1426 1424 1422 1421 1420 1418 1417 1416 1415 1414 1413 1412 1411 1411 1410 1410 1410 1410 1410 1410 1410
1470 1469 1467 1466 1464 1462 1460 1457 1455 1452 1448 1444 1441 1439 1437 1433 1430 1428 1426 1423 1420 1418 1417 1415 1413 1412 1410 1409 1408 1407 1407 1406 1405 1405 1404 1403 1403 1403 1403 1403 1403 1403 1403
1467 1466 1464 1462 1460 1457 1455 1452 1449 1446 1442 1438 1435 1432 1429 1425 1422 1419 1417 1414 1412 1410 1408 1406 1404 1403 1401 1400 1399 1399 1398 1398 1397 1397 1397 1396 1396 1396 1396 1396 1396 1396 1396
1465 1463 1461 1458 1455 1453 1450 1447 1444 1440 1436 1432 1428 1425 1422 1418 1415 1412 1409 1406 1403 1401 1399 1397 1395 1394 1393 1392 1391 1390 1390 1390 1390 1389 1389 1389 1389 1389 1389 1389 1389 1389 1390
1461 1459 1456 1454 1451 1448 1445 1442 1438 1434 1430 1425 1421 1418 1414 1411 1407 1404 1401 1398 1396 1393 1391 1389 1387 1386 1385 1384 1383 1383 1383 1382 1382 1382 1382 1382 1382 1382 1382 1383 1383 1383 1383
1457 1454 1452 1449 1446 1443 1439 1436 1432 1428 1423 1419 1415 1411 1407 1403 1400 1397 1394 1391 1388 1386 1383 1381 1380 1378 1378 1377 1376 1376 1375 1375 1375 1375 1375 1375 1376 1376 1376 1376 1376 1377 1377
1452 1449 1446 1443 1440 1437 1433 1430 1426 1421 1417 1413 1408 1404 1400 1397 1393 1390 1387 1384 1381 1379 1377 1375 1374 1372 1372 1371 1370 1369 1369 1369 1368 1368 1369 1369 1370 1370 1370 1370 1371 1371 1371
1447 1444 1441 1437 1434 1431 1427 1423 1419 1415 1411 1406 1402 1398 1394 1390 1387 1384 1381 1378 1376 1374 1371 1370 1368 1367 1365 1364 1364 1363 1363 1363 1362 1363 1363 1364 1364 1364 1365 1365 1365 1366 1366
1441 1438 1435 1431 1428 1424 1421 1417 1413 1409 1404 1400 1396 1392 1388 1385 1382 1379 1376 1373 1371 1369 1367 1364 1363 1361 1360 1359 1358 1358 1358 1357 1357 1358 1358 1359 1359 1359 1360 1360 1361 1361 1361